GFSNGP_sfc_thetae_231.txt.gz
Theta_e
305 305 303 302 301 302 300 301 297 300 299 302 307 307 307 309 308 307 307 308 309 309 309 309 310 310 309 308 307 307 307 305 305 306 304 309 309 309 308 308 307 308 308 309
301 304 303 299 300 300 300 301 301 300 300 308 308 308 307 307 306 307 307 307 307 307 307 306 305 305 306 305 306 306 304 304 304 306 307 308 308 308 309 309 309 309 310 309
297 302 300 295 301 301 301 301 301 298 303 307 306 305 305 306 308 307 307 306 305 305 303 300 300 302 302 303 304 303 302 304 304 307 306 307 308 309 308 310 310 309 309 309
298 300 290 301 305 304 301 302 304 304 305 306 305 306 307 309 307 305 305 305 304 302 302 301 299 301 302 302 302 301 304 305 306 308 306 308 308 309 310 311 310 310 310 311
296 296 299 301 303 302 300 300 306 305 305 305 306 306 305 308 308 306 305 304 301 302 302 302 300 300 300 301 301 304 304 306 306 308 308 308 307 309 311 311 311 310 311 310
298 292 290 301 305 307 305 296 305 305 303 304 305 299 302 308 308 306 305 302 301 300 300 300 299 300 300 301 304 304 306 307 307 308 308 308 309 310 312 311 311 310 310 311
296 295 298 306 307 307 294 296 307 305 305 306 301 303 307 309 307 305 303 300 300 299 299 301 301 301 303 304 304 307 308 308 308 308 308 310 311 311 312 311 311 311 310 311
297 294 291 308 306 299 305 308 306 307 307 305 306 308 307 306 304 301 300 299 299 298 299 301 304 306 304 305 307 307 307 308 307 308 308 307 310 311 311 310 308 309 309 308
301 301 308 310 307 309 309 306 307 308 308 308 306 305 305 302 302 300 298 298 299 299 300 305 305 306 304 306 307 307 306 306 307 307 309 310 308 309 306 308 306 305 305 304
301 303 303 304 306 308 309 308 309 309 308 307 305 304 301 300 300 297 298 298 300 299 300 303 305 304 305 306 307 306 306 305 306 306 308 308 308 307 304 303 303 303 303 303
299 301 304 306 308 309 309 309 309 308 306 305 302 301 299 298 297 297 298 299 300 304 302 302 303 304 305 307 307 306 306 305 306 306 308 308 305 304 304 302 300 302 302 301
299 305 304 306 309 309 307 307 306 304 304 302 300 299 298 297 298 298 299 299 303 302 303 302 303 305 307 308 307 306 305 304 303 304 305 308 303 304 294 295 295 293 292 296
304 307 307 309 310 309 306 305 304 303 300 299 300 298 297 298 300 300 299 302 302 302 303 303 305 307 308 308 307 304 302 302 302 303 304 305 306 304 301 299 295 294 293 293
309 309 305 306 304 306 306 305 303 300 302 300 298 298 299 300 300 300 302 304 303 303 303 307 304 304 306 309 308 306 304 298 303 303 305 305 303 301 299 298 296 298 296 294
307 307 306 306 305 305 305 302 298 299 299 298 298 298 300 298 300 303 305 304 305 306 305 304 303 304 305 306 305 304 303 302 305 304 305 303 303 299 299 298 296 295 295 295
306 305 305 303 303 303 301 299 297 297 298 297 297 299 299 303 304 303 304 306 305 304 305 304 303 304 304 304 304 303 303 298 299 304 303 302 301 299 298 297 297 296 294 294
304 303 303 302 302 301 297 298 297 298 297 297 298 299 303 304 303 304 306 309 308 307 306 305 304 304 304 303 303 303 303 303 298 304 302 301 299 298 298 297 296 296 296 294
306 305 305 304 302 299 298 297 298 298 297 298 300 304 304 303 303 306 307 308 307 306 306 305 306 305 304 304 303 304 303 302 303 302 300 299 299 299 298 298 298 297 298 298
306 304 304 303 301 299 298 297 298 298 299 299 302 304 304 304 307 307 307 306 304 304 305 306 300 303 303 301 301 305 303 303 303 303 301 297 299 299 299 300 300 299 299 299
305 305 304 302 300 299 297 299 299 298 299 300 305 305 304 306 307 307 307 305 307 307 308 307 306 305 304 301 298 305 304 303 302 302 302 301 300 300 300 297 302 302 302 302
305 305 303 300 299 299 299 300 298 298 300 304 306 304 306 308 307 308 306 302 306 307 305 302 304 302 301 298 300 304 305 303 302 302 302 302 302 302 302 302 303 304 304 304
306 305 303 300 299 298 299 299 299 300 306 305 306 307 307 306 307 307 308 304 305 294 303 303 302 292 298 295 301 303 305 304 304 303 303 303 303 303 303 303 303 304 305 306
307 306 303 300 298 298 299 299 299 304 304 305 306 307 308 308 308 305 302 306 305 298 303 303 292 287 287 301 301 303 305 305 304 304 304 304 303 303 304 304 304 304 304 305
307 306 303 300 300 299 297 298 299 306 304 307 309 309 310 308 307 305 304 298 294 298 302 301 296 287 286 301 301 303 303 304 303 303 303 296 304 304 304 303 303 304 304 303
308 307 303 300 298 297 299 299 299 305 305 308 310 312 311 310 307 306 306 305 291 299 304 290 289 288 302 301 301 302 303 303 303 303 302 302 302 301 301 301 301 302 302 303
306 306 303 301 299 299 300 300 300 304 307 305 308 309 310 308 308 308 307 302 306 299 306 305 305 304 303 302 301 301 302 302 302 302 301 302 301 301 302 302 302 301 302 302
308 301 302 300 299 299 300 300 301 306 305 306 307 309 309 309 307 305 300 306 306 305 305 305 305 301 303 302 301 301 301 301 296 302 302 301 302 302 302 302 302 302 302 301

GFSNGP_sfc_thetae_234.txt.gz
Theta_e
304 305 305 304 302 302 300 301 297 299 299 303 306 306 307 307 307 306 308 308 307 306 307 305 304 304 304 305 307 307 306 305 305 306 306 308 309 310 310 309 309 310 309 309
301 304 304 301 303 301 300 300 300 301 300 307 308 307 305 306 307 307 306 306 305 304 303 302 302 301 301 303 303 306 304 303 305 306 308 308 309 309 310 310 311 311 311 310
296 302 302 298 300 302 302 303 302 297 302 306 304 303 306 306 305 304 305 304 303 302 301 302 300 301 300 301 303 304 303 305 306 307 307 309 309 309 309 310 310 310 310 311
297 299 290 302 306 304 301 303 306 305 305 306 304 305 308 307 304 303 304 303 302 301 300 301 302 302 301 302 302 304 305 306 307 307 307 309 309 309 311 312 310 311 310 310
297 296 298 300 304 302 300 300 305 304 304 304 305 306 306 307 306 305 304 303 302 301 300 301 301 301 302 303 304 305 305 306 307 308 307 308 309 309 311 310 311 311 310 310
298 293 289 302 305 308 306 295 305 305 302 305 305 297 301 307 306 304 304 302 301 300 300 301 302 303 303 303 304 305 305 307 308 309 309 308 309 310 311 311 310 311 310 310
297 295 298 305 307 308 294 296 306 305 306 305 302 304 307 307 305 304 302 301 300 300 300 302 305 305 304 305 305 307 308 308 309 310 310 310 310 310 310 310 309 310 309 309
299 295 291 308 305 300 304 307 306 307 306 305 306 306 306 305 303 302 300 299 300 300 302 304 306 306 305 305 308 309 308 308 307 310 308 309 309 309 309 309 308 307 308 307
301 297 309 307 306 309 309 307 306 306 307 306 305 304 303 301 300 300 299 298 300 301 302 305 306 307 304 307 308 308 306 308 308 310 308 310 308 306 303 304 304 303 303 301
301 303 303 305 309 309 308 308 309 307 306 305 302 302 300 299 298 299 298 299 301 302 303 303 304 305 307 307 307 307 306 307 307 307 307 307 305 305 302 301 301 300 299 298
299 303 305 307 308 308 308 308 306 306 304 302 300 299 299 298 298 297 299 300 302 303 303 303 305 305 307 308 308 305 305 306 305 306 307 307 301 300 302 299 297 298 298 298
299 305 304 306 308 309 306 304 304 302 301 300 301 298 298 297 298 299 300 302 303 304 304 305 305 305 307 307 306 304 304 303 303 305 307 307 302 300 294 295 294 293 293 293
306 308 307 309 309 307 305 304 302 302 300 299 299 298 299 300 300 300 303 303 303 304 304 304 306 304 307 308 307 306 304 304 305 305 304 302 302 300 297 298 294 294 293 293
310 309 307 307 303 306 305 303 303 302 301 300 298 300 300 299 302 302 303 304 305 305 305 305 303 304 306 307 307 305 306 300 305 304 304 301 299 298 297 295 294 294 295 293
307 308 306 306 305 305 303 302 300 298 298 298 299 299 300 301 302 303 305 305 306 306 304 303 302 303 305 307 305 304 302 304 304 302 302 300 299 298 298 296 295 295 295 295
307 306 306 304 304 302 301 299 297 297 297 297 298 299 302 304 304 305 306 308 305 304 304 304 303 304 305 305 305 305 304 299 300 301 300 299 298 297 296 296 296 296 295 295
305 303 303 302 302 300 299 299 298 297 297 298 299 302 304 305 304 305 307 308 307 306 305 305 304 304 305 306 305 304 303 302 297 300 299 299 298 298 298 298 297 296 296 294
307 306 305 304 301 299 299 299 299 298 297 299 302 305 305 304 304 306 308 310 308 306 306 305 305 305 305 307 306 305 303 302 300 299 299 299 299 299 299 299 299 299 299 297
306 305 304 302 301 300 299 298 298 298 299 302 304 305 306 306 307 308 309 306 304 303 306 306 299 304 306 302 305 305 304 302 301 301 301 298 301 301 300 300 301 301 302 301
306 305 304 301 301 300 299 299 299 299 300 304 306 305 305 307 309 308 308 305 306 306 309 309 307 305 305 305 301 305 304 304 303 302 302 302 302 301 301 297 301 302 302 302
305 305 302 301 299 299 300 299 299 299 302 305 306 305 305 308 308 308 306 301 309 308 307 302 303 301 302 303 303 304 304 304 303 303 303 303 303 303 302 302 301 302 302 302
307 304 302 300 299 299 300 300 300 303 306 306 306 308 307 306 307 307 308 305 305 296 302 302 302 290 296 293 305 304 305 305 305 304 304 304 304 304 304 303 303 304 304 304
307 305 303 300 299 299 300 300 303 306 306 305 307 309 308 308 306 303 301 307 304 298 302 302 291 287 287 305 305 305 305 305 304 304 304 304 305 304 303 303 304 305 306 306
305 305 302 301 300 299 298 300 304 307 307 308 310 311 312 309 305 304 303 297 294 298 301 300 296 287 286 303 304 304 303 304 303 303 303 296 303 303 303 303 303 304 305 304
305 304 303 300 299 299 300 301 304 307 307 308 310 312 312 310 305 305 304 303 292 298 303 291 289 288 301 303 304 303 303 302 302 302 302 302 301 301 301 302 303 303 304 304
306 303 303 302 300 300 302 302 304 306 307 306 308 309 307 308 307 306 306 302 306 299 304 303 303 303 302 302 302 302 303 302 302 301 300 302 302 302 302 302 302 302 302 302
305 301 302 300 300 300 302 303 304 305 306 307 305 308 308 308 306 304 301 305 305 304 305 304 302 299 301 301 301 302 302 301 296 302 303 303 303 302 302 302 301 301 300 300

GFSNGP_sfc_thetae_237.txt.gz
Theta_e
301 303 302 300 301 301 297 297 293 296 297 300 302 298 301 303 303 303 302 301 299 298 297 298 298 297 299 300 301 303 302 300 299 301 301 302 303 303 304 303 304 304 304 304
298 303 302 299 302 301 300 299 297 298 297 303 300 303 302 301 301 300 300 300 299 299 298 298 298 298 299 299 300 302 301 299 301 301 301 302 303 303 303 304 303 303 304 303
291 300 298 291 299 300 300 301 299 294 297 300 299 301 299 299 300 300 299 299 298 298 297 297 297 299 297 298 300 300 299 302 303 303 303 303 303 303 302 302 301 301 302 302
289 294 281 297 303 303 300 301 301 300 300 300 300 301 301 300 299 299 299 298 297 296 296 298 299 297 298 299 299 299 300 302 303 304 304 304 304 302 302 302 301 302 302 302
286 285 295 299 302 299 297 298 303 300 301 302 303 301 298 301 300 298 297 297 299 299 296 299 301 298 300 298 300 301 302 302 303 303 303 303 303 301 302 301 301 302 303 301
292 284 284 299 305 309 305 294 302 300 301 300 299 291 293 299 300 299 298 298 296 297 299 297 298 299 298 300 300 300 302 303 303 303 302 302 301 301 304 302 301 304 303 304
291 288 296 301 306 307 293 293 301 301 300 300 296 297 300 301 299 298 296 297 297 297 296 298 299 300 299 299 299 302 304 304 303 302 301 302 300 301 301 300 300 300 301 303
294 291 288 304 303 297 300 303 302 301 300 299 299 299 298 299 297 296 295 296 298 298 297 298 300 300 299 297 301 303 305 304 301 302 303 303 299 298 297 298 300 297 297 299
294 293 301 303 303 305 304 302 302 300 300 300 298 297 298 295 295 297 297 296 297 299 297 300 299 299 297 299 303 304 303 301 301 304 302 300 298 295 296 296 297 296 296 295
296 300 302 303 305 305 304 302 301 300 299 298 296 297 295 297 295 296 297 297 296 297 297 297 299 302 302 303 304 301 299 300 300 299 299 297 298 297 295 294 294 295 296 296
296 300 302 304 304 303 302 302 300 300 298 298 297 296 296 296 297 295 295 295 297 297 297 299 303 302 304 305 302 299 300 301 299 299 298 295 294 294 296 295 295 295 294 295
292 300 300 301 302 304 300 299 299 298 298 299 297 297 297 295 295 294 295 297 298 300 301 301 303 303 303 304 302 299 298 299 300 299 298 300 299 298 295 294 294 292 293 293
300 304 304 303 303 302 299 299 300 299 299 297 298 297 299 295 295 298 297 299 300 299 301 302 300 299 303 302 302 299 297 299 301 299 296 295 297 296 295 296 295 294 292 293
306 306 301 302 299 300 300 301 301 300 299 299 298 299 296 295 296 298 301 302 302 303 303 301 298 298 302 301 300 300 300 299 301 299 298 298 297 297 296 295 294 294 295 294
304 304 301 301 301 300 300 298 297 297 298 297 298 296 296 297 297 302 303 304 304 302 300 299 299 298 300 301 301 299 302 300 299 299 298 297 297 296 296 296 295 295 295 296
304 303 303 300 299 299 297 296 296 296 297 297 297 297 298 300 301 301 303 305 298 297 299 299 297 298 302 301 301 299 298 296 297 298 298 297 297 297 297 297 296 295 295 295
301 300 300 298 298 296 296 298 297 297 297 297 295 298 300 303 301 303 304 304 300 298 298 298 298 301 302 303 302 299 299 299 296 299 299 299 299 299 298 298 297 297 296 294
302 301 300 299 297 298 297 298 298 297 295 296 299 302 303 301 299 301 304 303 302 299 298 298 298 301 303 302 301 300 300 300 300 299 300 299 299 300 300 299 299 298 298 297
303 301 300 300 299 298 297 298 297 296 297 299 301 303 301 301 302 302 300 299 299 298 299 299 298 299 300 301 301 301 301 300 300 300 300 298 301 301 301 301 300 300 300 299
302 301 301 300 299 299 298 299 297 297 298 299 303 301 301 304 304 301 299 297 298 298 300 299 297 299 301 301 299 301 300 299 299 299 300 300 300 301 301 298 301 301 300 300
302 301 300 299 298 300 298 298 298 297 299 301 303 302 301 303 303 301 297 297 299 299 297 296 296 297 300 299 300 301 301 300 299 299 299 299 300 299 300 301 301 301 301 301
302 300 299 299 298 297 298 298 298 299 301 303 304 305 304 303 301 299 299 295 296 294 297 296 295 289 294 291 301 301 301 300 300 300 298 300 298 298 299 300 301 301 302 302
302 301 299 299 298 297 298 299 299 302 303 303 304 303 301 298 298 296 293 297 297 295 297 296 289 287 286 301 301 300 300 300 298 298 298 297 297 297 298 297 298 301 301 301
302 300 299 300 299 298 297 297 300 304 305 305 305 306 305 296 295 296 294 294 292 295 297 295 292 288 287 299 300 299 298 297 296 295 295 292 295 296 296 297 298 298 298 299
302 300 299 299 297 297 298 297 299 302 304 303 306 308 306 302 298 299 298 298 293 294 296 288 288 289 296 296 297 296 296 295 295 295 295 294 294 294 295 295 295 296 297 298
301 299 299 300 298 299 299 297 298 302 303 303 302 303 301 302 301 300 301 298 300 296 297 296 296 297 296 296 297 297 296 295 295 295 295 295 295 295 295 295 295 295 295 294
301 298 298 297 299 299 299 298 299 300 303 303 304 305 304 302 301 299 297 299 299 299 297 295 295 294 295 296 296 295 295 294 293 296 296 296 295 295 295 294 293 293 293 292

GFSNGP_sfc_thetae_240.txt.gz
Theta_e
299 302 301 299 299 299 296 296 291 293 295 296 296 298 298 300 301 299 298 297 296 296 295 295 296 296 298 298 298 299 300 298 298 299 300 300 300 301 301 301 302 302 302 302
296 301 300 297 298 298 298 298 295 294 292 297 300 299 299 299 299 298 298 297 297 297 296 296 296 297 297 297 298 299 298 298 300 300 301 301 301 301 301 301 301 301 300 301
288 298 297 289 295 297 297 298 295 289 292 298 298 299 298 298 299 298 297 297 296 296 295 295 296 297 295 296 298 298 298 300 301 301 301 301 301 301 300 300 299 301 299 298
287 290 280 294 303 302 299 299 298 298 300 301 298 297 298 298 296 296 297 296 296 294 294 295 297 297 297 297 298 298 299 300 301 301 301 301 301 300 300 299 299 299 300 299
284 281 292 298 300 299 297 296 301 300 301 301 298 297 295 298 297 295 293 295 295 295 298 295 296 297 297 297 298 299 300 300 301 301 300 300 299 299 299 298 298 302 303 300
290 283 283 295 301 306 303 292 301 300 299 299 298 290 292 297 298 296 296 296 294 295 295 296 297 297 296 297 297 298 300 301 301 301 300 298 297 297 296 296 298 300 301 303
290 289 293 300 303 305 290 292 302 300 299 296 293 294 296 297 296 295 295 294 295 295 294 295 296 297 297 296 297 300 305 301 301 302 299 297 294 294 294 297 296 294 295 299
293 288 286 304 303 294 297 299 300 299 298 296 295 296 296 296 293 293 293 294 296 294 294 296 297 296 295 296 299 301 302 302 300 301 301 297 294 293 294 293 293 293 293 293
291 290 298 300 298 300 299 296 296 295 295 296 295 294 295 293 292 294 293 294 294 294 295 296 297 297 297 299 300 300 298 297 297 298 297 296 293 292 292 292 292 295 296 296
294 297 299 300 300 299 299 296 297 297 295 295 293 294 293 293 295 292 293 293 294 295 295 296 299 301 301 301 301 299 299 299 300 297 293 293 294 295 296 294 295 295 295 295
294 297 299 300 299 298 298 298 297 297 296 295 294 294 296 295 292 292 293 294 295 295 297 299 301 301 303 303 299 296 296 298 298 297 293 294 296 296 296 295 294 294 293 294
290 298 297 296 298 299 297 296 296 296 295 296 295 293 293 292 292 293 294 295 297 298 298 299 300 299 302 301 298 296 297 297 297 297 294 295 297 297 294 294 293 293 293 292
297 301 299 299 299 299 297 296 297 296 296 297 296 294 292 292 293 296 296 298 298 298 299 301 298 299 300 299 298 297 296 299 296 295 297 297 297 296 294 296 295 294 293 293
303 301 297 298 295 298 298 299 298 298 299 298 295 295 293 293 296 298 299 300 299 301 298 296 296 297 299 300 299 298 296 297 297 297 297 296 296 296 295 295 294 295 295 294
301 300 298 298 297 296 297 296 296 296 297 294 294 293 295 295 297 301 300 300 298 297 298 297 296 297 300 299 298 297 297 298 298 297 297 297 297 297 297 296 295 295 296 296
300 299 298 297 296 295 295 294 294 294 295 294 293 294 296 300 301 301 303 301 295 293 295 296 297 299 301 300 298 298 299 296 296 299 299 299 299 298 297 297 296 296 296 295
297 295 296 295 294 294 293 295 295 296 295 293 293 297 299 300 301 302 302 299 295 295 295 296 298 302 301 299 298 299 299 300 296 301 300 300 300 299 299 298 297 296 296 294
298 297 296 296 295 294 295 298 297 293 294 294 298 300 300 297 297 298 298 298 297 297 296 296 300 301 301 300 298 299 299 300 300 300 301 301 301 301 300 299 299 298 298 297
299 297 297 296 296 296 297 297 294 295 295 297 300 299 301 302 301 297 298 297 296 296 295 297 298 300 299 299 298 298 300 300 300 300 301 299 302 302 300 300 300 300 300 299
298 298 298 297 299 299 297 298 295 296 296 298 299 301 301 302 300 297 296 294 294 295 294 297 298 298 301 299 296 297 298 298 298 298 300 301 301 301 301 297 300 300 300 300
298 298 297 298 299 299 298 296 297 295 297 299 300 300 299 297 299 297 295 294 295 293 294 295 297 297 299 297 298 299 298 298 298 297 296 299 300 300 300 300 301 301 301 301
299 297 297 298 298 295 295 297 297 298 299 300 303 304 301 295 296 295 294 294 295 293 293 293 292 290 294 292 297 298 298 298 297 296 296 296 297 298 299 300 301 302 301 301
297 297 297 298 297 294 296 297 297 299 300 302 301 301 295 295 293 291 291 294 294 293 294 293 288 287 288 298 297 297 297 297 294 294 294 295 295 296 297 297 299 300 299 299
297 296 296 299 295 294 295 296 297 299 303 303 304 306 297 291 291 292 291 292 291 292 294 294 292 288 291 297 297 294 293 293 292 292 293 290 294 295 295 295 295 296 297 297
297 296 297 297 293 294 296 295 296 298 302 303 303 301 303 295 293 294 293 294 291 293 293 287 287 289 295 295 294 293 292 292 292 293 293 293 293 293 293 293 292 292 292 292
295 294 294 296 293 296 295 294 294 300 300 298 299 301 298 297 297 296 295 295 297 294 293 293 295 295 295 294 294 293 293 293 294 292 292 292 291 291 291 290 291 291 290 290
296 294 293 293 294 297 295 294 297 299 299 302 302 301 301 298 297 296 294 294 294 294 293 293 294 294 294 293 293 293 293 293 291 293 293 293 292 291 291 290 289 289 288 288

GFSNGP_sfc_thetae_246.txt.gz
Theta_e
294 295 297 296 294 295 291 290 287 290 292 294 295 298 299 300 299 298 299 299 297 295 294 294 295 296 297 297 298 299 298 298 299 300 301 301 301 302 302 302 302 302 303 302
292 297 296 293 294 295 293 294 292 292 292 297 299 300 299 299 299 299 298 297 296 296 295 295 295 296 297 297 298 298 297 298 300 301 301 301 301 302 302 301 301 302 300 300
286 293 293 287 293 293 294 295 294 289 293 298 299 299 299 300 299 297 297 296 295 295 294 294 294 296 296 297 297 297 298 300 301 301 301 301 300 300 300 300 300 303 301 300
284 288 279 292 300 298 295 297 298 297 299 300 300 300 299 298 296 295 295 294 294 293 293 295 295 295 296 297 297 298 299 300 301 301 300 300 298 297 298 298 299 300 302 302
282 281 291 297 300 297 294 293 299 298 300 301 300 298 296 297 297 295 294 294 294 294 294 295 295 295 295 296 297 299 299 301 301 301 299 297 296 296 297 296 296 297 302 302
291 287 285 295 302 305 303 288 299 299 297 296 295 289 290 296 295 294 294 294 294 295 294 294 295 295 296 297 297 298 300 300 301 301 297 295 295 295 295 296 297 299 298 298
291 288 294 302 304 305 286 287 298 298 295 294 291 292 293 295 294 294 294 294 295 294 293 294 296 297 297 297 298 300 301 300 300 298 296 295 295 295 294 295 296 296 298 299
292 289 285 302 300 291 293 294 296 295 294 293 293 294 294 294 293 293 293 293 294 293 294 298 298 298 297 298 300 301 299 300 299 298 297 296 296 295 295 295 296 297 297 297
291 290 296 296 295 296 296 295 295 294 294 294 293 292 293 294 292 293 293 293 294 294 295 297 298 299 297 300 301 299 300 299 298 298 298 297 297 296 296 296 295 295 295 295
290 293 294 295 296 296 296 296 295 295 294 293 291 294 295 295 292 292 292 293 294 295 297 296 298 299 300 301 299 298 298 297 298 297 297 298 298 298 296 294 294 294 294 294
292 293 295 296 296 295 297 296 295 295 294 293 294 294 293 292 292 292 293 294 295 296 296 296 297 300 299 299 298 299 298 298 298 298 298 298 298 297 296 296 294 293 294 295
289 296 294 294 296 297 295 295 294 294 293 294 294 292 292 292 292 293 294 296 296 296 296 296 297 299 299 299 298 296 297 297 297 298 298 297 297 297 295 295 294 293 292 293
295 297 296 296 297 297 294 295 295 294 294 293 294 293 293 293 295 297 297 298 296 296 295 297 297 299 300 300 298 298 297 297 297 297 297 296 297 296 295 297 296 294 292 292
298 297 294 296 294 296 296 296 297 296 296 295 293 294 293 294 298 298 298 296 296 297 298 298 298 298 300 300 299 299 298 297 297 298 298 298 298 297 297 296 296 297 296 295
297 297 296 296 296 295 295 295 293 293 294 293 293 293 296 296 298 299 299 296 296 297 298 298 299 298 300 301 300 300 300 300 301 300 300 299 299 298 298 297 297 297 299 298
296 296 295 295 294 294 293 292 292 292 293 293 293 295 296 297 299 299 296 296 295 295 297 298 298 300 301 301 300 301 301 297 298 301 300 300 299 298 298 298 297 297 297 296
294 293 293 293 292 292 292 292 293 293 293 293 296 297 297 298 298 296 296 297 296 297 298 298 299 301 302 301 300 301 302 303 297 301 301 300 299 299 299 298 298 298 297 294
299 298 295 294 292 292 293 294 294 293 293 294 297 299 299 298 296 296 297 297 296 297 298 299 300 301 301 301 300 300 300 301 302 301 301 301 300 301 300 300 299 298 298 298
299 297 295 294 294 293 293 293 293 294 295 298 300 299 299 298 298 297 295 294 295 296 297 300 298 300 300 299 298 300 300 300 301 302 302 299 301 301 300 300 299 299 298 299
297 295 295 295 296 294 293 294 294 295 296 299 299 298 297 297 296 295 295 293 294 295 297 301 300 301 302 300 295 300 300 299 299 299 299 301 301 302 302 297 301 300 300 300
295 295 295 295 294 295 295 295 295 295 297 298 298 299 297 298 297 295 292 292 294 296 299 297 299 301 301 296 298 299 299 299 299 298 299 299 301 300 300 301 301 300 299 299
295 294 295 294 294 293 294 295 296 297 299 299 300 298 297 295 295 295 295 293 295 291 296 296 296 291 293 290 299 300 298 298 299 298 298 299 299 300 300 300 299 298 296 295
294 295 295 294 293 293 295 296 297 298 299 299 299 297 295 294 293 294 294 297 296 292 294 295 289 287 288 297 296 297 297 297 296 297 298 298 298 298 297 296 297 296 295 294
294 294 294 294 294 294 294 296 297 299 302 301 301 299 295 293 293 294 294 292 289 292 295 293 291 288 290 295 295 295 295 296 296 296 296 291 296 296 296 295 294 294 293 292
294 294 294 293 292 293 295 295 298 300 300 299 299 300 295 295 294 295 295 296 290 292 296 287 287 288 295 295 295 295 295 296 296 296 295 295 294 294 293 293 293 292 291 291
293 293 293 293 293 294 295 295 298 299 298 299 300 300 301 298 297 297 297 294 296 291 294 294 295 296 295 295 295 295 295 294 295 294 294 294 293 293 292 292 291 291 290 290
293 292 292 292 293 295 295 295 298 298 298 299 300 301 302 302 299 297 293 297 295 296 295 295 295 294 295 295 295 295 294 294 291 293 293 292 292 292 291 291 290 290 289 289